When you browse on this site, cookies collect data to enhance your experience and personalize the content and advertising you see.
Visit our Privacy Policy to learn more. By continuing to use the site, you agree to this use of cookies and data.
  • In Austria
  • List of Countries
  • For 7 days
  • Water Temperature
  • Weather Map
  • News
  • Weather Widgets
  • user-avatar
    Login

    Hourly Weather Tlanalapan

    Today, 18 August, Sunday

    Time Temperature Precipitation Wind Pressure Humidity
    00:00 +13°C° 0 mm 1 mps 566 mmHg 88%
    01:00 +13°C° 0 mm 1 mps 566 mmHg 88%
    02:00 +11°C° 0 mm 0 mps 565 mmHg 88%
    03:00 +11°C° 0 mm 0 mps 565 mmHg 88%
    04:00 +11°C° 0 mm 0 mps 565 mmHg 88%
    05:00 +11°C° 0 mm 0 mps 565 mmHg 88%
    06:00 +13°C° 0 mm 0 mps 567 mmHg 82%
    07:00 +15°C° 0 mm 0 mps 568 mmHg 75%
    08:00 +17°C° 0 mm 0 mps 569 mmHg 69%
    09:00 +20°C° 0 mm 1 mps 570 mmHg 60%
    10:00 +21°C° 0 mm 2 mps 570 mmHg 52%
    11:00 +24°C° 0 mm 2 mps 571 mmHg 43%
    12:00 +24°C° 0 mm 3 mps 570 mmHg 44%
    13:00 +23°C° 0 mm 4 mps 570 mmHg 44%
    14:00 +25°C° 0 mm 4 mps 569 mmHg 45%
    15:00 +22°C° 0.2 mm 4 mps 569 mmHg 55%
    16:00 +21°C° 0.2 mm 4 mps 568 mmHg 65%
    17:00 +19°C° 0.2 mm 4 mps 567 mmHg 75%
    18:00 +17°C° 0.3 mm 3 mps 567 mmHg 81%
    19:00 +16°C° 0.3 mm 3 mps 567 mmHg 87%
    20:00 +14°C° 0.3 mm 2 mps 567 mmHg 93%
    21:00 +14°C° 0 mm 2 mps 567 mmHg 93%
    22:00 +14°C° 0 mm 2 mps 566 mmHg 93%
    23:00 +13°C° 0 mm 2 mps 566 mmHg 93%

    Tomorrow, 19 August, Monday

    Time Temperature Precipitation Wind Pressure Humidity
    00:00 +13°C° 0 mm 2 mps 566 mmHg 93%
    01:00 +13°C° 0 mm 1 mps 566 mmHg 94%
    02:00 +13°C° 0 mm 1 mps 566 mmHg 94%
    03:00 +12°C° 0 mm 1 mps 565 mmHg 94%
    04:00 +12°C° 0 mm 1 mps 565 mmHg 95%
    05:00 +12°C° 0 mm 1 mps 565 mmHg 95%
    06:00 +13°C° 0 mm 2 mps 566 mmHg 90%
    07:00 +14°C° 0 mm 2 mps 567 mmHg 84%
    08:00 +16°C° 0 mm 2 mps 568 mmHg 79%
    09:00 +18°C° 0 mm 3 mps 569 mmHg 71%
    10:00 +19°C° 0 mm 4 mps 570 mmHg 63%
    11:00 +21°C° 0 mm 5 mps 570 mmHg 55%
    12:00 +21°C° 0.1 mm 6 mps 570 mmHg 57%
    13:00 +21°C° 0.1 mm 7 mps 569 mmHg 59%
    14:00 +20°C° 0.1 mm 7 mps 568 mmHg 62%
    15:00 +18°C° 0.1 mm 7 mps 568 mmHg 66%
    16:00 +17°C° 0.1 mm 6 mps 567 mmHg 70%
    17:00 +16°C° 0.1 mm 5 mps 567 mmHg 74%
    18:00 +14°C° 0 mm 4 mps 567 mmHg 80%
    19:00 +13°C° 0 mm 3 mps 566 mmHg 86%
    20:00 +11°C° 0 mm 3 mps 566 mmHg 92%
    21:00 +12°C° 0 mm 2 mps 566 mmHg 92%
    22:00 +10°C° 0 mm 2 mps 566 mmHg 92%
    23:00 +9°C° 0 mm 2 mps 566 mmHg 92%

    Day after tomorrow, 20 August, Tuesday

    Time Temperature Precipitation Wind Pressure Humidity
    00:00 +9°C° 0 mm 2 mps 565 mmHg 92%
    01:00 +8°C° 0 mm 2 mps 565 mmHg 91%
    02:00 +9°C° 0 mm 1 mps 564 mmHg 91%
    03:00 +9°C° 0 mm 1 mps 564 mmHg 91%
    04:00 +8°C° 0 mm 1 mps 564 mmHg 91%
    05:00 +8°C° 0 mm 1 mps 564 mmHg 91%
    06:00 +9°C° 0 mm 2 mps 566 mmHg 83%
    07:00 +13°C° 0 mm 2 mps 567 mmHg 76%
    08:00 +15°C° 0 mm 2 mps 569 mmHg 68%
    09:00 +17°C° 0 mm 3 mps 569 mmHg 63%
    10:00 +18°C° 0 mm 4 mps 570 mmHg 58%
    11:00 +20°C° 0 mm 5 mps 571 mmHg 53%
    12:00 +20°C° 0.1 mm 5 mps 570 mmHg 56%
    13:00 +20°C° 0.1 mm 6 mps 570 mmHg 59%
    14:00 +20°C° 0.1 mm 6 mps 569 mmHg 61%
    15:00 +19°C° 0.2 mm 6 mps 568 mmHg 67%
    16:00 +17°C° 0.2 mm 5 mps 568 mmHg 72%
    17:00 +15°C° 0.2 mm 5 mps 567 mmHg 77%
    18:00 +14°C° 0.2 mm 4 mps 567 mmHg 82%
    19:00 +13°C° 0.2 mm 3 mps 567 mmHg 87%
    20:00 +12°C° 0.2 mm 3 mps 567 mmHg 92%
    21:00 +13°C° 0.1 mm 2 mps 567 mmHg 93%
    22:00 +12°C° 0.1 mm 2 mps 567 mmHg 93%
    23:00 +12°C° 0.1 mm 2 mps 568 mmHg 93%

    21 August, Wednesday

    Time Temperature Precipitation Wind Pressure Humidity
    00:00 +12°C° 0 mm 2 mps 567 mmHg 92%
    01:00 +12°C° 0 mm 1 mps 567 mmHg 91%
    02:00 +12°C° 0 mm 1 mps 566 mmHg 90%
    03:00 +11°C° 0 mm 1 mps 566 mmHg 91%
    04:00 +10°C° 0 mm 1 mps 566 mmHg 92%
    05:00 +10°C° 0 mm 1 mps 566 mmHg 93%
    06:00 +11°C° 0 mm 1 mps 566 mmHg 88%
    07:00 +13°C° 0 mm 2 mps 567 mmHg 83%
    08:00 +14°C° 0 mm 2 mps 568 mmHg 78%
    09:00 +16°C° 0 mm 2 mps 569 mmHg 70%
    10:00 +18°C° 0 mm 3 mps 570 mmHg 61%
    11:00 +20°C° 0 mm 3 mps 570 mmHg 53%
    12:00 +20°C° 0.2 mm 4 mps 570 mmHg 56%
    13:00 +20°C° 0.2 mm 4 mps 569 mmHg 60%
    14:00 +20°C° 0.2 mm 4 mps 569 mmHg 64%
    15:00 +19°C° 0.5 mm 4 mps 568 mmHg 69%
    16:00 +17°C° 0.5 mm 4 mps 568 mmHg 75%
    17:00 +15°C° 0.5 mm 4 mps 567 mmHg 80%
    18:00 +14°C° 0.1 mm 3 mps 567 mmHg 84%
    19:00 +13°C° 0.1 mm 3 mps 567 mmHg 89%
    20:00 +12°C° 0.1 mm 2 mps 567 mmHg 93%
    21:00 +13°C° 0.1 mm 2 mps 567 mmHg 93%
    22:00 +13°C° 0.1 mm 1 mps 567 mmHg 92%
    23:00 +13°C° 0.1 mm 1 mps 567 mmHg 92%

    22 August, Thursday

    Time Temperature Precipitation Wind Pressure Humidity
    00:00 +12°C° 0 mm 1 mps 567 mmHg 92%
    01:00 +12°C° 0 mm 1 mps 566 mmHg 92%
    02:00 +12°C° 0 mm 1 mps 566 mmHg 93%
    03:00 +11°C° 0 mm 1 mps 566 mmHg 93%
    04:00 +11°C° 0 mm 1 mps 566 mmHg 92%
    05:00 +11°C° 0 mm 1 mps 566 mmHg 92%
    06:00 +13°C° 0 mm 1 mps 567 mmHg 87%
    07:00 +14°C° 0 mm 1 mps 568 mmHg 82%
    08:00 +16°C° 0 mm 1 mps 569 mmHg 76%
    09:00 +18°C° 0.3 mm 1 mps 570 mmHg 73%
    10:00 +19°C° 0.3 mm 1 mps 570 mmHg 70%
    11:00 +19°C° 0.3 mm 2 mps 570 mmHg 67%
    12:00 +21°C° 0.8 mm 1 mps 570 mmHg 65%
    13:00 +21°C° 0.8 mm 1 mps 570 mmHg 62%
    14:00 +22°C° 0.8 mm 1 mps 569 mmHg 60%
    15:00 +21°C° 1.6 mm 1 mps 569 mmHg 66%
    16:00 +20°C° 1.6 mm 1 mps 568 mmHg 73%
    17:00 +19°C° 1.6 mm 1 mps 568 mmHg 80%
    18:00 +18°C° 1.6 mm 1 mps 568 mmHg 84%
    19:00 +16°C° 1.6 mm 1 mps 568 mmHg 88%
    20:00 +15°C° 1.6 mm 1 mps 568 mmHg 92%
    21:00 +15°C° 1.4 mm 1 mps 568 mmHg 92%
    22:00 +13°C° 1.4 mm 0 mps 568 mmHg 92%
    23:00 +13°C° 1.4 mm 0 mps 568 mmHg 93%

    23 August, Friday

    Time Temperature Precipitation Wind Pressure Humidity
    00:00 +13°C° 0.6 mm 0 mps 568 mmHg 93%
    01:00 +14°C° 0.6 mm 1 mps 568 mmHg 93%
    02:00 +14°C° 0.6 mm 1 mps 567 mmHg 93%
    03:00 +13°C° 0.2 mm 1 mps 567 mmHg 93%
    04:00 +13°C° 0.2 mm 1 mps 567 mmHg 92%
    05:00 +13°C° 0.2 mm 1 mps 567 mmHg 92%
    06:00 +14°C° 0 mm 1 mps 568 mmHg 88%
    07:00 +15°C° 0 mm 1 mps 568 mmHg 84%
    08:00 +16°C° 0 mm 1 mps 569 mmHg 80%
    09:00 +18°C° 0.3 mm 1 mps 569 mmHg 74%
    10:00 +20°C° 0.3 mm 1 mps 570 mmHg 67%
    11:00 +22°C° 0.3 mm 1 mps 571 mmHg 61%
    12:00 +21°C° 1.7 mm 1 mps 570 mmHg 64%
    13:00 +20°C° 1.7 mm 2 mps 569 mmHg 67%
    14:00 +19°C° 1.7 mm 3 mps 568 mmHg 71%
    15:00 +18°C° 1 mm 2 mps 568 mmHg 75%
    16:00 +17°C° 1 mm 2 mps 567 mmHg 80%
    17:00 +16°C° 1 mm 1 mps 567 mmHg 85%
    18:00 +15°C° 0.2 mm 1 mps 567 mmHg 86%
    19:00 +15°C° 0.2 mm 1 mps 567 mmHg 87%
    20:00 +14°C° 0.2 mm 2 mps 567 mmHg 88%
    21:00 +14°C° 0 mm 1 mps 567 mmHg 88%
    22:00 +13°C° 0 mm 1 mps 567 mmHg 89%
    23:00 +13°C° 0 mm 1 mps 567 mmHg 89%
    Show more